| time (UTC) | temp F | wind direction | speed MPH | gust MPH | rain 1hr in | rain 24hr in | rain mn in | humidity % | barometer mb |
| 20260506134706 | 76 | 37 | 8.0 | 19.0 | 0.00 | 0.04 | 0.00 | 25 | 1010.3 |
| 20260506134600 | 75 | 240 | 4.0 | 18.0 | 0.00 | 0.04 | 0.00 | 25 | 1010.5 |
| 20260506133705 | 76 | 262 | 10.0 | 19.0 | 0.00 | 0.04 | 0.00 | 26 | 1010.3 |
| 20260506133206 | 76 | 325 | 9.0 | 18.0 | 0.00 | 0.04 | 0.00 | 26 | 1010.3 |
| 20260506133104 | 75 | 321 | 9.0 | 19.0 | 0.00 | 0.04 | 0.00 | 26 | 1010.6 |
| 20260506132705 | 76 | 277 | 9.0 | 17.0 | 0.00 | 0.04 | 0.00 | 28 | 1010.3 |
| 20260506132206 | 76 | 276 | 10.0 | 17.0 | 0.00 | 0.04 | 0.00 | 28 | 1010.4 |
| 20260506131705 | 76 | 246 | 9.0 | 18.0 | 0.00 | 0.04 | 0.00 | 28 | 1010.3 |
| 20260506131558 | 75 | 315 | 9.0 | 15.0 | 0.00 | 0.04 | 0.00 | 28 | 1010.6 |
| 20260506130706 | 76 | 295 | 8.0 | 18.0 | 0.00 | 0.04 | 0.00 | 30 | 1010.5 |
| 20260506130206 | 75 | 276 | 8.0 | 18.0 | 0.00 | 0.04 | 0.00 | 28 | 1010.5 |
| 20260506130056 | 75 | 248 | 11.0 | 19.0 | 0.00 | 0.04 | 0.00 | 29 | 1010.8 |
| 20260506125705 | 75 | 211 | 8.0 | 18.0 | 0.00 | 0.04 | 0.00 | 29 | 1010.5 |
| 20260506125206 | 75 | 258 | 9.0 | 20.0 | 0.00 | 0.04 | 0.00 | 28 | 1010.7 |
| 20260506124705 | 75 | 284 | 9.0 | 20.0 | 0.00 | 0.04 | 0.00 | 29 | 1010.6 |
| 20260506124557 | 75 | 281 | 8.0 | 19.0 | 0.00 | 0.04 | 0.00 | 29 | 1010.9 |
| 20260506124205 | 75 | 333 | 10.0 | 20.0 | 0.00 | 0.04 | 0.00 | 29 | 1010.6 |
| 20260506123707 | 75 | 279 | 10.0 | 17.0 | 0.00 | 0.04 | 0.00 | 29 | 1010.7 |
| 20260506123053 | 74 | 249 | 10.0 | 17.0 | 0.00 | 0.04 | 0.00 | 29 | 1011.1 |
| 20260506122206 | 74 | 284 | 11.0 | 17.0 | 0.00 | 0.04 | 0.00 | 30 | 1010.8 |
| 20260506121706 | 74 | 304 | 10.0 | 21.0 | 0.00 | 0.04 | 0.00 | 31 | 1010.7 |
| 20260506121552 | 73 | 343 | 10.0 | 19.0 | 0.00 | 0.04 | 0.00 | 30 | 1011.0 |
| 20260506121205 | 74 | 292 | 11.0 | 21.0 | 0.00 | 0.04 | 0.00 | 30 | 1010.7 |
| 20260506120706 | 74 | 250 | 10.0 | 21.0 | 0.00 | 0.04 | 0.00 | 30 | 1010.8 |
| 20260506120229 | 74 | 244 | 10.0 | 21.0 | 0.00 | 0.04 | 0.00 | 30 | 1010.8 |
| 20260506120050 | 73 | 207 | 9.0 | 19.0 | 0.00 | 0.04 | 0.00 | 30 | 1011.1 |
| 20260506115705 | 74 | 305 | 11.0 | 21.0 | 0.00 | 0.04 | 0.00 | 30 | 1010.9 |
| 20260506115205 | 74 | 264 | 11.0 | 21.0 | 0.00 | 0.04 | 0.00 | 31 | 1010.9 |
| 20260506114705 | 73 | 285 | 13.0 | 23.0 | 0.00 | 0.04 | 0.00 | 30 | 1011.0 |
| 20260506114556 | 73 | 252 | 11.0 | 21.0 | 0.00 | 0.04 | 0.00 | 31 | 1011.3 |
| 20260506114206 | 73 | 275 | 13.0 | 24.0 | 0.00 | 0.04 | 0.00 | 31 | 1010.9 |
| 20260506113706 | 73 | 279 | 13.0 | 24.0 | 0.00 | 0.04 | 0.00 | 32 | 1011.0 |
| 20260506113205 | 73 | 263 | 13.0 | 21.0 | 0.00 | 0.04 | 0.00 | 31 | 1011.0 |
| 20260506113052 | 73 | 284 | 16.0 | 25.0 | 0.00 | 0.04 | 0.00 | 30 | 1011.4 |
| 20260506112705 | 74 | 281 | 10.0 | 18.0 | 0.00 | 0.04 | 0.00 | 30 | 1011.0 |
| 20260506112225 | 74 | 255 | 9.0 | 18.0 | 0.00 | 0.04 | 0.00 | 31 | 1011.0 |
| 20260506111705 | 73 | 281 | 10.0 | 18.0 | 0.00 | 0.04 | 0.00 | 32 | 1011.0 |
| 20260506111551 | 73 | 277 | 11.0 | 18.0 | 0.00 | 0.04 | 0.00 | 32 | 1011.5 |
| 20260506111205 | 73 | 263 | 11.0 | 19.0 | 0.00 | 0.04 | 0.00 | 33 | 1011.1 |
| 20260506110705 | 72 | 246 | 12.0 | 19.0 | 0.00 | 0.04 | 0.00 | 32 | 1011.2 |
| 20260506110206 | 72 | 309 | 11.0 | 20.0 | 0.00 | 0.04 | 0.00 | 32 | 1011.1 |
| 20260506110045 | 72 | 200 | 10.0 | 19.0 | 0.00 | 0.04 | 0.00 | 32 | 1011.5 |
| 20260506105705 | 73 | 272 | 12.0 | 20.0 | 0.00 | 0.04 | 0.00 | 32 | 1011.3 |
| 20260506105206 | 73 | 267 | 12.0 | 20.0 | 0.00 | 0.04 | 0.00 | 31 | 1011.3 |
| 20260506104705 | 73 | 253 | 10.0 | 17.0 | 0.00 | 0.04 | 0.00 | 32 | 1011.4 |
| 20260506104553 | 73 | 226 | 12.0 | 20.0 | 0.00 | 0.04 | 0.00 | 32 | 1011.7 |
| 20260506104205 | 73 | 204 | 9.0 | 19.0 | 0.00 | 0.04 | 0.00 | 32 | 1011.4 |
| 20260506103205 | 72 | 263 | 9.0 | 19.0 | 0.00 | 0.04 | 0.00 | 35 | 1011.6 |
| 20260506103042 | 71 | 302 | 7.0 | 19.0 | 0.00 | 0.04 | 0.00 | 35 | 1012.0 |
| 20260506102706 | 72 | 304 | 9.0 | 17.0 | 0.00 | 0.04 | 0.00 | 36 | 1011.6 |
| 20260506102205 | 72 | 155 | 9.0 | 16.0 | 0.00 | 0.04 | 0.00 | 35 | 1011.6 |
| 20260506101705 | 72 | 321 | 9.0 | 19.0 | 0.00 | 0.04 | 0.00 | 37 | 1011.5 |
| 20260506101547 | 71 | 320 | 10.0 | 16.0 | 0.00 | 0.04 | 0.00 | 36 | 1011.9 |
| 20260506100705 | 71 | 280 | 9.0 | 20.0 | 0.00 | 0.04 | 0.00 | 37 | 1011.5 |
| 20260506100233 | 71 | 280 | 10.0 | 20.0 | 0.00 | 0.04 | 0.00 | 37 | 1011.6 |
| 20260506100035 | 70 | 281 | 7.0 | 20.0 | 0.00 | 0.04 | 0.00 | 37 | 1011.8 |
| 20260506094705 | 69 | 263 | 10.0 | 22.0 | 0.00 | 0.04 | 0.00 | 39 | 1011.4 |
| 20260506094533 | 69 | 280 | 11.0 | 20.0 | 0.00 | 0.04 | 0.00 | 39 | 1011.8 |
| 20260506094205 | 69 | 261 | 11.0 | 22.0 | 0.00 | 0.04 | 0.00 | 41 | 1011.3 |
| 20260506093205 | 68 | 255 | 11.0 | 20.0 | 0.00 | 0.04 | 0.00 | 40 | 1011.3 |
| 20260506093027 | 68 | 268 | 12.0 | 20.0 | 0.00 | 0.04 | 0.00 | 41 | 1011.7 |
| 20260506092705 | 68 | 241 | 12.0 | 20.0 | 0.00 | 0.04 | 0.00 | 42 | 1011.4 |
| 20260506091705 | 68 | 294 | 11.0 | 19.0 | 0.00 | 0.04 | 0.00 | 41 | 1011.3 |
| 20260506091523 | 67 | 241 | 11.0 | 19.0 | 0.00 | 0.04 | 0.00 | 42 | 1011.7 |
| 20260506091205 | 67 | 305 | 11.0 | 22.0 | 0.00 | 0.04 | 0.00 | 44 | 1011.3 |
| 20260506090705 | 67 | 250 | 13.0 | 22.0 | 0.00 | 0.04 | 0.00 | 44 | 1011.3 |
| 20260506090205 | 66 | 261 | 13.0 | 22.0 | 0.00 | 0.04 | 0.00 | 44 | 1011.3 |
| 20260506090018 | 65 | 275 | 14.0 | 22.0 | 0.00 | 0.04 | 0.00 | 44 | 1011.6 |
| 20260506085705 | 66 | 246 | 12.0 | 22.0 | 0.00 | 0.04 | 0.00 | 45 | 1011.3 |
| 20260506085206 | 65 | 263 | 13.0 | 23.0 | 0.00 | 0.04 | 0.00 | 47 | 1011.2 |
| 20260506084705 | 65 | 302 | 13.0 | 23.0 | 0.00 | 0.04 | 0.00 | 46 | 1011.3 |
| 20260506084515 | 65 | 263 | 12.0 | 24.0 | 0.00 | 0.04 | 0.00 | 46 | 1011.5 |
| 20260506084205 | 65 | 269 | 13.0 | 23.0 | 0.00 | 0.04 | 0.00 | 46 | 1011.3 |
| 20260506083705 | 65 | 257 | 13.0 | 22.0 | 0.00 | 0.04 | 0.00 | 46 | 1011.3 |
| 20260506083205 | 65 | 267 | 13.0 | 22.0 | 0.00 | 0.04 | 0.00 | 47 | 1011.3 |
| 20260506083011 | 64 | 257 | 12.0 | 22.0 | 0.00 | 0.04 | 0.00 | 47 | 1011.6 |
| 20260506082705 | 65 | 195 | 12.0 | 22.0 | 0.00 | 0.04 | 0.00 | 47 | 1011.3 |
| 20260506082205 | 65 | 294 | 12.0 | 19.0 | 0.00 | 0.04 | 0.00 | 48 | 1011.3 |
| 20260506081706 | 65 | 280 | 10.0 | 20.0 | 0.00 | 0.04 | 0.00 | 48 | 1011.3 |
| 20260506081507 | 64 | 286 | 10.0 | 19.0 | 0.00 | 0.04 | 0.00 | 49 | 1011.5 |
| 20260506081206 | 64 | 319 | 9.0 | 20.0 | 0.00 | 0.04 | 0.00 | 49 | 1011.3 |
| 20260506080705 | 64 | 265 | 10.0 | 19.0 | 0.00 | 0.04 | 0.00 | 50 | 1011.3 |
| 20260506080206 | 64 | 292 | 11.0 | 19.0 | 0.00 | 0.04 | 0.00 | 50 | 1011.3 |
| 20260506073205 | 62 | 263 | 11.0 | 19.0 | 0.00 | 0.04 | 0.00 | 54 | 1011.3 |
| 20260506073055 | 61 | 234 | 11.0 | 19.0 | 0.00 | 0.04 | 0.00 | 54 | 1011.7 |
| 20260506072705 | 62 | 294 | 11.0 | 20.0 | 0.00 | 0.04 | 0.00 | 55 | 1011.3 |
| 20260506072206 | 61 | 295 | 10.0 | 20.0 | 0.00 | 0.04 | 0.00 | 55 | 1011.4 |
| 20260506071705 | 61 | 284 | 9.0 | 20.0 | 0.00 | 0.04 | 0.00 | 57 | 1011.3 |
| 20260506071550 | 60 | 283 | 8.0 | 20.0 | 0.00 | 0.04 | 0.00 | 56 | 1011.6 |
| 20260506071205 | 60 | 248 | 10.0 | 17.0 | 0.00 | 0.04 | 0.00 | 57 | 1011.3 |
| 20260506070706 | 60 | 263 | 11.0 | 17.0 | 0.00 | 0.04 | 0.00 | 58 | 1011.3 |
| 20260506070205 | 59 | 262 | 10.0 | 17.0 | 0.00 | 0.04 | 0.00 | 58 | 1011.3 |
| 20260506062206 | 56 | 271 | 11.0 | 21.0 | 0.00 | 0.04 | 0.00 | 62 | 1011.0 |
| 20260506061705 | 56 | 292 | 11.0 | 21.0 | 0.00 | 0.04 | 0.00 | 63 | 1010.9 |
| 20260506061533 | 55 | 259 | 9.0 | 21.0 | 0.00 | 0.04 | 0.00 | 64 | 1011.1 |
| 20260506061227 | 55 | 279 | 12.0 | 20.0 | 0.00 | 0.04 | 0.00 | 64 | 1010.8 |
| 20260506060705 | 55 | 256 | 11.0 | 20.0 | 0.00 | 0.04 | 0.00 | 65 | 1010.8 |
| 20260506060206 | 55 | 232 | 11.0 | 20.0 | 0.00 | 0.04 | 0.00 | 66 | 1010.7 |
| 20260506051205 | 52 | 268 | 11.0 | 15.0 | 0.00 | 0.04 | 0.00 | 68 | 1010.2 |
| 20260506050706 | 52 | 252 | 9.0 | 15.0 | 0.00 | 0.04 | 0.00 | 68 | 1010.2 |
| 20260506050205 | 51 | 290 | 8.0 | 13.0 | 0.00 | 0.04 | 0.00 | 68 | 1010.1 |
| 20260506044513 | 51 | 296 | 6.0 | 11.0 | 0.00 | 0.04 | 0.00 | 68 | 1010.4 |
| 20260506044206 | 51 | 293 | 6.0 | 11.0 | 0.00 | 0.04 | 0.00 | 68 | 1010.1 |
| 20260506043706 | 51 | 259 | 7.0 | 12.0 | 0.00 | 0.04 | 0.00 | 68 | 1010.1 |
| 20260506043009 | 51 | 261 | 8.0 | 12.0 | 0.00 | 0.04 | 0.00 | 68 | 1010.5 |
| 20260506042705 | 51 | 255 | 6.0 | 12.0 | 0.00 | 0.04 | 0.00 | 68 | 1010.1 |
| 20260506042206 | 51 | 298 | 6.0 | 12.0 | 0.00 | 0.04 | 0.00 | 68 | 1010.1 |
| 20260506041706 | 51 | 228 | 6.0 | 12.0 | 0.00 | 0.04 | 0.00 | 68 | 1010.0 |
| 20260506041508 | 51 | 285 | 5.0 | 12.0 | 0.00 | 0.04 | 0.00 | 68 | 1010.4 |
| 20260506041206 | 51 | 256 | 7.0 | 11.0 | 0.00 | 0.04 | 0.00 | 68 | 1010.1 |
| 20260506040106 | 51 | 244 | 7.0 | 10.0 | 0.00 | 0.04 | 0.00 | 68 | 1010.6 |
| 20260506035706 | 51 | 301 | 7.0 | 9.0 | 0.00 | 0.04 | 0.00 | 68 | 1010.2 |
| 20260506035205 | 51 | 263 | 6.0 | 9.0 | 0.00 | 0.04 | 0.00 | 68 | 1010.2 |
| 20260506034706 | 51 | 275 | 6.0 | 10.0 | 0.00 | 0.04 | 0.00 | 68 | 1010.1 |
| 20260506034505 | 51 | 275 | 5.0 | 10.0 | 0.00 | 0.04 | 0.00 | 68 | 1010.6 |
| 20260506033705 | 52 | 281 | 5.0 | 9.0 | 0.00 | 0.04 | 0.00 | 68 | 1010.1 |
| 20260506033206 | 52 | 279 | 5.0 | 9.0 | 0.00 | 0.04 | 0.00 | 68 | 1010.1 |
| 20260506033004 | 51 | 301 | 3.0 | 8.0 | 0.00 | 0.04 | 0.00 | 68 | 1010.5 |
| 20260506032706 | 52 | 300 | 5.0 | 9.0 | 0.00 | 0.04 | 0.00 | 68 | 1010.2 |
| 20260506031706 | 52 | 274 | 5.0 | 9.0 | 0.00 | 0.04 | 0.00 | 68 | 1010.2 |
| 20260506031502 | 51 | 269 | 5.0 | 9.0 | 0.00 | 0.04 | 0.00 | 68 | 1010.6 |
| 20260506031206 | 52 | 269 | 5.0 | 9.0 | 0.00 | 0.04 | 0.00 | 68 | 1010.2 |
| 20260506030205 | 52 | 281 | 4.0 | 11.0 | 0.00 | 0.04 | 0.00 | 68 | 1010.3 |
| 20260506030001 | 52 | 267 | 4.0 | 9.0 | 0.00 | 0.04 | 0.00 | 68 | 1010.6 |
| 20260506025206 | 52 | 278 | 5.0 | 10.0 | 0.00 | 0.04 | 0.00 | 68 | 1010.3 |
| 20260506024705 | 52 | 248 | 5.0 | 11.0 | 0.00 | 0.04 | 0.00 | 68 | 1010.3 |
| 20260506024602 | 52 | 285 | 5.0 | 10.0 | 0.00 | 0.04 | 0.00 | 68 | 1010.7 |
| 20260506023206 | 52 | 265 | 6.0 | 16.0 | 0.00 | 0.04 | 0.00 | 68 | 1010.1 |
| 20260506023101 | 52 | 247 | 5.0 | 16.0 | 0.00 | 0.04 | 0.00 | 68 | 1010.5 |
| 20260506022206 | 52 | 279 | 7.0 | 12.0 | 0.00 | 0.04 | 0.00 | 68 | 1010.0 |
| 20260506021705 | 52 | 246 | 6.0 | 10.0 | 0.00 | 0.04 | 0.00 | 68 | 1010.0 |
| 20260506021610 | 52 | 275 | 6.0 | 12.0 | 0.00 | 0.04 | 0.00 | 68 | 1010.3 |
| 20260506020705 | 52 | 265 | 3.0 | 9.0 | 0.00 | 0.04 | 0.00 | 68 | 1009.9 |
| 20260506020205 | 52 | 254 | 3.0 | 9.0 | 0.00 | 0.04 | 0.00 | 68 | 1010.0 |
| 20260506020058 | 52 | 246 | 2.0 | 9.0 | 0.00 | 0.04 | 0.00 | 68 | 1010.2 |
| 20260506015705 | 52 | 276 | 4.0 | 12.0 | 0.00 | 0.04 | 0.00 | 68 | 1009.9 |
| 20260506015205 | 53 | 292 | 5.0 | 12.0 | 0.00 | 0.04 | 0.00 | 68 | 1009.9 |
| 20260506014558 | 52 | 271 | 4.0 | 14.0 | 0.00 | 0.04 | 0.00 | 68 | 1010.2 |
| 20260506014206 | 53 | 277 | 8.0 | 14.0 | 0.00 | 0.04 | 0.00 | 68 | 1009.9 |
| 20260506013705 | 53 | 293 | 7.0 | 13.0 | 0.00 | 0.04 | 0.00 | 68 | 1009.7 |
| 20260506013206 | 53 | 263 | 7.0 | 12.0 | 0.00 | 0.04 | 0.00 | 68 | 1009.8 |
| 20260506013104 | 52 | 287 | 6.0 | 12.0 | 0.00 | 0.04 | 0.00 | 69 | 1010.1 |
| 20260506012205 | 53 | 267 | 8.0 | 16.0 | 0.00 | 0.04 | 0.00 | 69 | 1009.8 |
| 20260506011555 | 52 | 324 | 7.0 | 17.0 | 0.00 | 0.04 | 0.00 | 69 | 1010.2 |
| 20260506010705 | 53 | 300 | 10.0 | 17.0 | 0.00 | 0.04 | 0.00 | 69 | 1009.9 |
| 20260506010110 | 52 | 296 | 9.0 | 17.0 | 0.00 | 0.04 | 0.00 | 69 | 1010.3 |
| 20260506005705 | 52 | 246 | 6.0 | 11.0 | 0.00 | 0.04 | 0.00 | 69 | 1010.0 |
| 20260506005205 | 52 | 275 | 5.0 | 11.0 | 0.00 | 0.04 | 0.00 | 68 | 1010.0 |
| 20260506004706 | 52 | 265 | 5.0 | 10.0 | 0.00 | 0.04 | 0.00 | 68 | 1010.1 |
| 20260506004552 | 52 | 334 | 5.0 | 9.0 | 0.00 | 0.05 | 0.00 | 68 | 1010.4 |
| 20260506004205 | 52 | 271 | 5.0 | 10.0 | 0.00 | 0.04 | 0.00 | 68 | 1010.1 |
| 20260506003706 | 53 | 267 | 5.0 | 11.0 | 0.00 | 0.04 | 0.00 | 68 | 1010.1 |
| 20260506003205 | 53 | 303 | 6.0 | 13.0 | 0.00 | 0.04 | 0.00 | 68 | 1010.1 |
| 20260506003047 | 52 | 277 | 4.0 | 11.0 | 0.00 | 0.05 | 0.00 | 68 | 1010.5 |
| 20260506001706 | 53 | 267 | 8.0 | 13.0 | 0.00 | 0.05 | 0.00 | 68 | 1010.2 |
| 20260506001547 | 52 | 266 | 7.0 | 13.0 | 0.00 | 0.05 | 0.00 | 68 | 1010.6 |
| 20260506001205 | 53 | 283 | 8.0 | 13.0 | 0.00 | 0.05 | 0.00 | 68 | 1010.3 |
| 20260506000205 | 53 | 271 | 8.0 | 13.0 | 0.00 | 0.05 | 0.00 | 68 | 1010.3 |
| 20260506000043 | 53 | 294 | 7.0 | 14.0 | 0.00 | 0.05 | 0.00 | 68 | 1010.7 |
| 20260505235705 | 53 | 287 | 7.0 | 12.0 | 0.00 | 0.05 | 0.00 | 68 | 1010.3 |
| 20260505235206 | 53 | 262 | 7.0 | 15.0 | 0.00 | 0.05 | 0.00 | 68 | 1010.4 |
| 20260505234705 | 53 | 279 | 7.0 | 15.0 | 0.00 | 0.05 | 0.00 | 68 | 1010.4 |
| 20260505234601 | 53 | 265 | 7.0 | 15.0 | 0.00 | 0.05 | 0.00 | 68 | 1010.9 |
| 20260505234205 | 53 | 288 | 8.0 | 14.0 | 0.00 | 0.05 | 0.00 | 68 | 1010.5 |
| 20260505233706 | 54 | 265 | 8.0 | 12.0 | 0.00 | 0.05 | 0.00 | 68 | 1010.5 |
| 20260505233205 | 54 | 248 | 7.0 | 15.0 | 0.00 | 0.05 | 0.00 | 68 | 1010.6 |
| 20260505233040 | 53 | 281 | 7.0 | 12.0 | 0.00 | 0.05 | 0.00 | 68 | 1010.9 |
| 20260505232706 | 54 | 250 | 8.0 | 15.0 | 0.00 | 0.05 | 0.00 | 68 | 1010.7 |
| 20260505232206 | 54 | 269 | 8.0 | 14.0 | 0.00 | 0.05 | 0.00 | 68 | 1010.7 |
| 20260505231705 | 54 | 284 | 8.0 | 15.0 | 0.00 | 0.05 | 0.00 | 68 | 1010.8 |
| 20260505231536 | 53 | 266 | 7.0 | 14.0 | 0.00 | 0.05 | 0.00 | 68 | 1011.1 |
| 20260505231206 | 54 | 269 | 8.0 | 15.0 | 0.00 | 0.05 | 0.00 | 68 | 1010.7 |
| 20260505230705 | 54 | 305 | 9.0 | 15.0 | 0.00 | 0.05 | 0.00 | 68 | 1010.8 |
| 20260505230205 | 54 | 263 | 9.0 | 15.0 | 0.00 | 0.05 | 0.00 | 68 | 1010.9 |
| 20260505230035 | 53 | 252 | 10.0 | 15.0 | 0.00 | 0.05 | 0.00 | 68 | 1011.2 |
| 20260505225705 | 54 | 268 | 8.0 | 13.0 | 0.00 | 0.05 | 0.00 | 68 | 1010.9 |
| 20260505225206 | 54 | 271 | 7.0 | 13.0 | 0.00 | 0.05 | 0.00 | 68 | 1011.0 |
| 20260505224535 | 54 | 290 | 7.0 | 13.0 | 0.00 | 0.05 | 0.00 | 68 | 1011.3 |
| 20260505223705 | 54 | 278 | 7.0 | 13.0 | 0.00 | 0.05 | 0.00 | 68 | 1011.0 |
| 20260505223205 | 54 | 245 | 7.0 | 13.0 | 0.00 | 0.05 | 0.00 | 68 | 1011.1 |
| 20260505223029 | 54 | 285 | 6.0 | 13.0 | 0.00 | 0.05 | 0.00 | 68 | 1011.4 |
| 20260505221705 | 55 | 263 | 6.0 | 14.0 | 0.00 | 0.05 | 0.00 | 68 | 1011.3 |
| 20260505221627 | 54 | 279 | 5.0 | 14.0 | 0.00 | 0.05 | 0.00 | 68 | 1011.6 |
| 20260505221205 | 55 | 263 | 5.0 | 10.0 | 0.00 | 0.05 | 0.00 | 68 | 1011.3 |
| 20260505220026 | 54 | 281 | 6.0 | 11.0 | 0.00 | 0.05 | 0.00 | 68 | 1011.9 |
| 20260505215706 | 55 | 254 | 6.0 | 11.0 | 0.00 | 0.05 | 0.05 | 68 | 1011.6 |
| 20260505215206 | 55 | 252 | 6.0 | 11.0 | 0.00 | 0.05 | 0.05 | 68 | 1011.6 |
| 20260505214705 | 55 | 277 | 7.0 | 13.0 | 0.00 | 0.05 | 0.05 | 68 | 1011.6 |
| 20260505214546 | 54 | 283 | 6.0 | 11.0 | 0.00 | 0.05 | 0.05 | 68 | 1012.0 |
| 20260505214206 | 55 | 305 | 7.0 | 13.0 | 0.00 | 0.05 | 0.05 | 68 | 1011.7 |
| 20260505213705 | 55 | 277 | 7.0 | 17.0 | 0.00 | 0.05 | 0.05 | 68 | 1011.7 |
| 20260505213205 | 55 | 257 | 8.0 | 17.0 | 0.00 | 0.05 | 0.05 | 68 | 1011.7 |
| 20260505213022 | 54 | 238 | 6.0 | 15.0 | 0.00 | 0.05 | 0.05 | 68 | 1012.0 |
| 20260505212705 | 55 | 252 | 10.0 | 17.0 | 0.00 | 0.05 | 0.05 | 68 | 1011.7 |
| 20260505212205 | 55 | 259 | 10.0 | 15.0 | 0.00 | 0.05 | 0.05 | 68 | 1011.7 |
| 20260505211705 | 55 | 273 | 10.0 | 14.0 | 0.00 | 0.05 | 0.05 | 68 | 1011.7 |
| 20260505211521 | 54 | 288 | 9.0 | 14.0 | 0.00 | 0.05 | 0.05 | 68 | 1012.0 |
| 20260505210705 | 55 | 259 | 8.0 | 13.0 | 0.00 | 0.05 | 0.05 | 68 | 1011.7 |
| 20260505210020 | 54 | 250 | 8.0 | 13.0 | 0.01 | 0.05 | 0.05 | 68 | 1012.1 |
| 20260505205705 | 55 | 273 | 6.0 | 16.0 | 0.01 | 0.05 | 0.05 | 68 | 1011.8 |
| 20260505204705 | 55 | 269 | 4.0 | 9.0 | 0.01 | 0.05 | 0.05 | 67 | 1012.0 |
| 20260505204520 | 54 | 234 | 4.0 | 9.0 | 0.01 | 0.05 | 0.05 | 67 | 1012.4 |
| 20260505204206 | 55 | 248 | 3.0 | 9.0 | 0.01 | 0.05 | 0.05 | 68 | 1012.1 |
| 20260505203705 | 55 | 245 | 3.0 | 8.0 | 0.01 | 0.05 | 0.05 | 68 | 1012.1 |
| 20260505203205 | 55 | 250 | 3.0 | 8.0 | 0.01 | 0.05 | 0.05 | 67 | 1012.1 |
| 20260505203031 | 54 | 228 | 4.0 | 8.0 | 0.01 | 0.05 | 0.05 | 67 | 1012.5 |
| 20260505202705 | 55 | 273 | 3.0 | 9.0 | 0.01 | 0.05 | 0.05 | 67 | 1012.1 |
| 20260505202206 | 55 | 274 | 4.0 | 9.0 | 0.01 | 0.05 | 0.05 | 68 | 1012.2 |
| 20260505201705 | 55 | 321 | 4.0 | 9.0 | 0.01 | 0.05 | 0.05 | 68 | 1012.2 |
| 20260505201524 | 54 | 232 | 4.0 | 9.0 | 0.01 | 0.05 | 0.05 | 67 | 1012.5 |
| 20260505201206 | 55 | 294 | 4.0 | 9.0 | 0.02 | 0.05 | 0.05 | 67 | 1012.2 |
| 20260505200016 | 54 | 281 | 2.0 | 9.0 | 0.02 | 0.04 | 0.04 | 67 | 1012.4 |
| 20260505195705 | 55 | 204 | 5.0 | 9.0 | 0.02 | 0.04 | 0.04 | 67 | 1012.0 |
| 20260505195206 | 55 | 292 | 5.0 | 9.0 | 0.02 | 0.04 | 0.04 | 67 | 1011.8 |
| 20260505194705 | 55 | 247 | 4.0 | 9.0 | 0.02 | 0.04 | 0.04 | 67 | 1011.6 |
| 20260505194515 | 54 | 215 | 4.0 | 8.0 | 0.02 | 0.04 | 0.04 | 67 | 1011.9 |
| 20260505194205 | 55 | 253 | 5.0 | 12.0 | 0.02 | 0.04 | 0.04 | 67 | 1011.4 |
| 20260505193705 | 55 | 252 | 6.0 | 12.0 | 0.02 | 0.04 | 0.04 | 67 | 1011.2 |
| 20260505193205 | 55 | 289 | 6.0 | 12.0 | 0.02 | 0.04 | 0.04 | 67 | 1011.2 |
| 20260505193012 | 55 | 259 | 6.0 | 12.0 | 0.02 | 0.04 | 0.04 | 67 | 1011.5 |
| 20260505192706 | 55 | 263 | 5.0 | 9.0 | 0.02 | 0.04 | 0.04 | 67 | 1011.3 |
| 20260505192206 | 55 | 249 | 4.0 | 9.0 | 0.02 | 0.04 | 0.04 | 67 | 1011.2 |
| 20260505191705 | 55 | 259 | 5.0 | 13.0 | 0.01 | 0.03 | 0.03 | 67 | 1011.1 |
| 20260505191511 | 55 | 285 | 4.0 | 9.0 | 0.02 | 0.04 | 0.04 | 67 | 1011.4 |
| 20260505190705 | 56 | 252 | 6.0 | 13.0 | 0.01 | 0.03 | 0.03 | 67 | 1010.9 |
| 20260505190220 | 55 | 263 | 6.0 | 11.0 | 0.00 | 0.02 | 0.02 | 67 | 1011.0 |
| 20260505190011 | 55 | 273 | 5.0 | 11.0 | 0.00 | 0.02 | 0.02 | 67 | 1011.2 |
| 20260505184706 | 56 | 293 | 8.0 | 16.0 | 0.00 | 0.02 | 0.02 | 67 | 1010.6 |
| 20260505184511 | 55 | 287 | 5.0 | 16.0 | 0.00 | 0.02 | 0.02 | 67 | 1011.0 |
| 20260505184206 | 56 | 251 | 9.0 | 16.0 | 0.00 | 0.02 | 0.02 | 67 | 1010.7 |
| 20260505183706 | 56 | 269 | 9.0 | 17.0 | 0.00 | 0.02 | 0.02 | 66 | 1010.7 |
| 20260505183205 | 56 | 277 | 10.0 | 19.0 | 0.00 | 0.02 | 0.02 | 66 | 1010.7 |
| 20260505183015 | 55 | 265 | 8.0 | 17.0 | 0.00 | 0.02 | 0.02 | 66 | 1011.0 |
| 20260505182705 | 56 | 265 | 12.0 | 19.0 | 0.00 | 0.02 | 0.02 | 66 | 1010.6 |
| 20260505181705 | 56 | 271 | 10.0 | 16.0 | 0.00 | 0.02 | 0.02 | 66 | 1010.5 |
| 20260505181509 | 56 | 242 | 10.0 | 15.0 | 0.00 | 0.02 | 0.02 | 66 | 1010.9 |
| 20260505181205 | 56 | 269 | 10.0 | 16.0 | 0.00 | 0.02 | 0.02 | 66 | 1010.6 |
| 20260505180705 | 57 | 263 | 10.0 | 17.0 | 0.00 | 0.02 | 0.02 | 66 | 1010.7 |
| 20260505180205 | 57 | 269 | 10.0 | 17.0 | 0.00 | 0.02 | 0.02 | 66 | 1010.7 |
| 20260505180009 | 56 | 272 | 9.0 | 17.0 | 0.00 | 0.02 | 0.02 | 65 | 1011.1 |
| 20260505175705 | 57 | 251 | 10.0 | 18.0 | 0.00 | 0.02 | 0.02 | 65 | 1010.8 |
| 20260505175205 | 57 | 263 | 10.0 | 22.0 | 0.00 | 0.02 | 0.02 | 65 | 1010.7 |
| 20260505174705 | 57 | 256 | 11.0 | 22.0 | 0.00 | 0.02 | 0.02 | 65 | 1010.6 |
| 20260505174513 | 57 | 257 | 11.0 | 21.0 | 0.00 | 0.02 | 0.02 | 65 | 1010.9 |
| 20260505174205 | 57 | 244 | 11.0 | 20.0 | 0.00 | 0.02 | 0.02 | 64 | 1010.6 |
| 20260505173705 | 58 | 266 | 11.0 | 20.0 | 0.00 | 0.02 | 0.02 | 63 | 1010.5 |
| 20260505173205 | 58 | 285 | 9.0 | 20.0 | 0.00 | 0.02 | 0.02 | 63 | 1010.5 |
| 20260505173012 | 57 | 259 | 11.0 | 20.0 | 0.00 | 0.02 | 0.02 | 63 | 1010.8 |
| 20260505172705 | 58 | 281 | 8.0 | 19.0 | 0.00 | 0.02 | 0.02 | 62 | 1010.6 |
| 20260505172205 | 59 | 279 | 7.0 | 17.0 | 0.00 | 0.02 | 0.02 | 61 | 1010.6 |
| 20260505171705 | 59 | 223 | 7.0 | 17.0 | 0.00 | 0.02 | 0.02 | 60 | 1010.6 |
| 20260505171512 | 59 | 244 | 5.0 | 17.0 | 0.00 | 0.02 | 0.02 | 60 | 1011.0 |
| 20260505170705 | 60 | 307 | 9.0 | 21.0 | 0.00 | 0.02 | 0.02 | 58 | 1010.6 |
| 20260505170205 | 61 | 283 | 9.0 | 21.0 | 0.00 | 0.02 | 0.02 | 58 | 1010.6 |
| 20260505170009 | 61 | 215 | 10.0 | 26.0 | 0.00 | 0.02 | 0.02 | 58 | 1011.0 |
| 20260505165705 | 62 | 290 | 6.0 | 9.0 | 0.00 | 0.02 | 0.02 | 60 | 1010.6 |
| 20260505165206 | 62 | 216 | 2.0 | 7.0 | 0.00 | 0.02 | 0.02 | 61 | 1010.1 |
| 20260505164705 | 62 | 229 | 2.0 | 9.0 | 0.00 | 0.02 | 0.02 | 61 | 1009.7 |
| 20260505164508 | 62 | 211 | 0.0 | 7.0 | 0.00 | 0.04 | 0.02 | 61 | 1010.0 |
| 20260505164206 | 62 | 163 | 2.0 | 9.0 | 0.01 | 0.02 | 0.02 | 61 | 1009.4 |
| 20260505163705 | 62 | 111 | 2.0 | 6.0 | 0.01 | 0.02 | 0.02 | 61 | 1009.6 |
| 20260505163205 | 62 | 100 | 1.0 | 6.0 | 0.02 | 0.02 | 0.02 | 62 | 1009.6 |
| 20260505163008 | 62 | 76 | 0.0 | 6.0 | 0.02 | 0.04 | 0.02 | 62 | 1010.0 |
| 20260505162705 | 62 | 153 | 2.0 | 6.0 | 0.02 | 0.03 | 0.02 | 62 | 1009.6 |
| 20260505162233 | 62 | 220 | 1.0 | 7.0 | 0.02 | 0.03 | 0.02 | 63 | 1009.6 |
| 20260505161705 | 62 | 211 | 2.0 | 7.0 | 0.02 | 0.03 | 0.02 | 63 | 1009.6 |
| 20260505161506 | 62 | 201 | 0.0 | 7.0 | 0.02 | 0.04 | 0.02 | 63 | 1010.0 |
| 20260505160706 | 63 | 241 | 1.0 | 4.0 | 0.02 | 0.04 | 0.02 | 63 | 1009.8 |
| 20260505160205 | 63 | 229 | 1.0 | 7.0 | 0.02 | 0.04 | 0.02 | 64 | 1009.8 |
| 20260505153206 | 63 | 115 | 2.0 | 8.0 | 0.00 | 0.06 | 0.01 | 60 | 1009.9 |
| 20260505153004 | 63 | 189 | 1.0 | 6.0 | 0.00 | 0.06 | 0.01 | 60 | 1010.2 |
| 20260505152705 | 63 | 23 | 2.0 | 8.0 | 0.00 | 0.06 | 0.01 | 59 | 1009.9 |
| 20260505152206 | 64 | 212 | 1.0 | 8.0 | 0.00 | 0.06 | 0.01 | 58 | 1009.9 |
| 20260505151705 | 64 | 71 | 2.0 | 9.0 | 0.00 | 0.06 | 0.01 | 58 | 1009.8 |
| 20260505151504 | 63 | 141 | 1.0 | 6.0 | 0.00 | 0.06 | 0.01 | 57 | 1010.2 |
| 20260505151206 | 64 | 103 | 3.0 | 9.0 | 0.00 | 0.06 | 0.01 | 57 | 1009.8 |
| 20260505150705 | 64 | 126 | 3.0 | 10.0 | 0.00 | 0.06 | 0.01 | 57 | 1009.8 |
| 20260505150205 | 64 | 59 | 3.0 | 10.0 | 0.00 | 0.06 | 0.01 | 56 | 1009.8 |
| 20260505140205 | 74 | 215 | 2.0 | 7.0 | 0.00 | 0.06 | 0.01 | 35 | 1009.4 |